Time,TemperatureF,DewpointF,PressureIn,WindDirection,WindDirectionDegrees,WindSpeedMPH,WindSpeedGustMPH,Humidity,HourlyPrecipIn,Conditions,Clouds,dailyrainin,SoftwareType,DateUTC
2013-05-15 00:01:00,63.7,57.6,29.97,NW,315,0.4,0.0,81,0.00,,,0.00,,2013-05-14 22:01:00,
2013-05-15 00:06:00,63.7,57.6,29.97,NW,315,0.4,0.0,81,0.00,,,0.00,,2013-05-14 22:06:00,
2013-05-15 00:11:00,63.7,57.6,29.97,NW,315,0.0,1.7,81,0.00,,,0.00,,2013-05-14 22:11:00,
2013-05-15 00:16:00,63.7,57.6,29.94,NW,315,0.4,0.4,81,0.00,,,0.00,,2013-05-14 22:16:00,
2013-05-15 00:21:00,63.5,57.6,29.94,NW,315,0.0,2.2,81,0.00,,,0.00,,2013-05-14 22:21:00,
2013-05-15 00:26:00,63.5,57.7,29.97,NW,315,0.4,0.0,82,0.00,,,0.00,,2013-05-14 22:26:00,
2013-05-15 00:31:00,63.5,57.7,29.97,NW,315,0.0,1.3,82,0.00,,,0.00,,2013-05-14 22:31:00,
2013-05-15 00:36:00,63.5,57.7,29.94,NW,315,0.0,1.3,82,0.00,,,0.00,,2013-05-14 22:36:00,
2013-05-15 00:41:00,63.3,57.6,29.94,NW,315,0.4,0.4,82,0.00,,,0.00,,2013-05-14 22:41:00,
2013-05-15 00:46:00,63.3,57.6,29.94,NW,315,0.0,0.0,82,0.00,,,0.00,,2013-05-14 22:46:00,
2013-05-15 00:51:00,63.1,57.4,29.94,NW,315,0.0,0.0,82,0.00,,,0.00,,2013-05-14 22:51:00,
2013-05-15 00:56:00,63.1,57.4,29.94,North,0,0.0,0.0,82,0.00,,,0.00,,2013-05-14 22:56:00,
2013-05-15 01:01:00,63.3,57.6,29.94,North,0,0.4,0.4,82,0.00,,,0.00,,2013-05-14 23:01:00,
2013-05-15 01:11:00,63.3,57.6,29.94,NE,45,1.7,0.0,82,0.00,,,0.00,,2013-05-14 23:11:00,
2013-05-15 01:16:00,63.3,57.6,29.94,North,0,0.8,0.8,82,0.00,,,0.00,,2013-05-14 23:16:00,
2013-05-15 01:26:00,63.3,57.6,29.94,NNE,22,0.8,1.7,82,0.00,,,0.00,,2013-05-14 23:26:00,
2013-05-15 01:31:00,63.1,57.7,29.94,NE,45,0.0,1.7,83,0.00,,,0.00,,2013-05-14 23:31:00,
2013-05-15 01:36:00,63.1,57.7,29.94,NE,45,0.4,0.4,83,0.00,,,0.00,,2013-05-14 23:36:00,
2013-05-15 01:41:00,63.0,57.2,29.94,NNE,22,0.4,1.7,82,0.00,,,0.00,,2013-05-14 23:41:00,
2013-05-15 01:46:00,63.0,57.6,29.94,North,0,0.0,1.7,83,0.00,,,0.00,,2013-05-14 23:46:00,
2013-05-15 01:51:00,63.0,57.6,29.94,North,0,0.8,0.8,83,0.00,,,0.00,,2013-05-14 23:51:00,
2013-05-15 01:56:00,62.8,57.4,29.94,North,0,0.8,0.0,83,0.00,,,0.00,,2013-05-14 23:56:00,
2013-05-15 02:01:00,62.6,57.2,29.94,North,0,0.8,0.0,83,0.00,,,0.00,,2013-05-15 00:01:00,
2013-05-15 02:06:00,62.6,57.2,29.94,ENE,67,0.8,2.6,83,0.00,,,0.00,,2013-05-15 00:06:00,
2013-05-15 02:11:00,62.4,57.0,29.94,East,90,0.0,0.0,83,0.00,,,0.00,,2013-05-15 00:11:00,
2013-05-15 02:16:00,62.4,57.0,29.94,NE,45,0.0,0.0,83,0.00,,,0.00,,2013-05-15 00:16:00,
2013-05-15 02:21:00,62.4,57.0,29.94,NE,45,0.8,1.3,83,0.00,,,0.00,,2013-05-15 00:21:00,
2013-05-15 02:26:00,62.2,56.8,29.94,NE,45,0.0,0.0,83,0.00,,,0.00,,2013-05-15 00:26:00,
2013-05-15 02:31:00,62.2,56.8,29.94,NE,45,0.0,0.0,83,0.00,,,0.00,,2013-05-15 00:31:00,
2013-05-15 02:36:00,62.1,56.7,29.94,NE,45,0.0,0.0,83,0.00,,,0.00,,2013-05-15 00:36:00,
2013-05-15 02:41:00,62.1,56.7,29.94,NE,45,0.0,0.0,83,0.00,,,0.00,,2013-05-15 00:41:00,
2013-05-15 02:46:00,61.9,56.5,29.91,NE,45,0.0,0.0,83,0.00,,,0.00,,2013-05-15 00:46:00,
2013-05-15 02:51:00,61.9,56.5,29.91,NE,45,0.0,0.0,83,0.00,,,0.00,,2013-05-15 00:51:00,
2013-05-15 02:56:00,61.7,56.5,29.91,NE,45,0.0,0.0,83,0.00,,,0.00,,2013-05-15 00:56:00,
2013-05-15 03:01:00,61.7,56.5,29.91,NE,45,0.0,0.0,83,0.00,,,0.00,,2013-05-15 01:01:00,
2013-05-15 03:06:00,61.5,56.3,29.91,East,90,0.0,0.0,83,0.00,,,0.00,,2013-05-15 01:06:00,
2013-05-15 03:11:00,61.5,56.3,29.91,East,90,0.0,0.0,83,0.00,,,0.00,,2013-05-15 01:11:00,
2013-05-15 03:16:00,61.7,56.5,29.91,NE,45,0.0,0.0,83,0.00,,,0.00,,2013-05-15 01:16:00,
2013-05-15 03:21:00,61.5,56.3,29.91,NE,45,0.8,2.6,83,0.00,,,0.00,,2013-05-15 01:21:00,
2013-05-15 03:26:00,61.5,56.3,29.91,NE,45,1.3,1.3,83,0.00,,,0.00,,2013-05-15 01:26:00,
2013-05-15 03:31:00,61.3,56.1,29.91,NE,45,1.3,1.3,83,0.00,,,0.00,,2013-05-15 01:31:00,
2013-05-15 03:36:00,61.3,56.1,29.91,NE,45,1.3,3.1,83,0.00,,,0.00,,2013-05-15 01:36:00,
2013-05-15 03:41:00,61.3,56.1,29.91,NE,45,1.3,2.6,83,0.00,,,0.00,,2013-05-15 01:41:00,
2013-05-15 03:46:00,61.3,56.1,29.91,NE,45,0.8,0.0,83,0.00,,,0.00,,2013-05-15 01:46:00,
2013-05-15 03:51:00,61.3,55.8,29.91,NE,45,1.7,0.0,82,0.00,,,0.00,,2013-05-15 01:51:00,
2013-05-15 03:56:00,61.2,55.6,29.91,NE,45,0.4,0.0,82,0.00,,,0.00,,2013-05-15 01:56:00,
2013-05-15 04:01:00,61.2,55.6,29.91,East,90,0.4,0.0,82,0.00,,,0.00,,2013-05-15 02:01:00,
2013-05-15 04:06:00,61.2,55.6,29.91,East,90,0.4,0.4,82,0.00,,,0.00,,2013-05-15 02:06:00,
2013-05-15 04:11:00,61.2,55.6,29.91,NE,45,0.8,3.1,82,0.00,,,0.00,,2013-05-15 02:11:00,
2013-05-15 04:16:00,61.0,55.4,29.91,SE,135,2.6,3.5,82,0.00,,,0.00,,2013-05-15 02:16:00,
2013-05-15 04:21:00,61.0,55.0,29.91,East,90,2.2,6.2,81,0.00,,,0.00,,2013-05-15 02:21:00,
2013-05-15 04:26:00,61.0,55.0,29.88,NE,45,1.7,1.7,81,0.00,,,0.00,,2013-05-15 02:26:00,
2013-05-15 04:31:00,60.8,54.5,29.88,East,90,2.6,2.6,80,0.00,,,0.00,,2013-05-15 02:31:00,
2013-05-15 04:36:00,60.6,54.3,29.88,SE,135,1.7,2.2,80,0.00,,,0.00,,2013-05-15 02:36:00,
2013-05-15 04:41:00,60.6,54.3,29.88,SE,135,2.2,2.2,80,0.00,,,0.00,,2013-05-15 02:41:00,
2013-05-15 04:46:00,60.4,53.8,29.88,East,90,3.1,6.2,79,0.00,,,0.00,,2013-05-15 02:46:00,
2013-05-15 04:51:00,60.3,53.6,29.88,East,90,2.2,6.2,79,0.00,,,0.00,,2013-05-15 02:51:00,
2013-05-15 04:56:00,60.4,54.1,29.88,East,90,2.2,2.6,80,0.00,,,0.00,,2013-05-15 02:56:00,
2013-05-15 05:01:00,60.4,54.1,29.88,East,90,1.3,3.1,80,0.00,,,0.00,,2013-05-15 03:01:00,
2013-05-15 05:06:00,60.3,54.3,29.88,East,90,2.6,4.0,81,0.00,,,0.00,,2013-05-15 03:06:00,
2013-05-15 05:11:00,60.3,54.3,29.88,SE,135,2.2,4.0,81,0.00,,,0.00,,2013-05-15 03:11:00,
2013-05-15 05:16:00,60.1,54.1,29.88,SE,135,1.7,1.7,81,0.00,,,0.00,,2013-05-15 03:16:00,
2013-05-15 05:21:00,60.1,54.1,29.88,SE,135,1.3,3.1,81,0.00,,,0.00,,2013-05-15 03:21:00,
2013-05-15 05:26:00,60.1,54.1,29.88,SE,135,2.2,2.2,81,0.00,,,0.00,,2013-05-15 03:26:00,
2013-05-15 05:31:00,60.1,54.5,29.88,SE,135,1.3,1.3,82,0.00,,,0.00,,2013-05-15 03:31:00,
2013-05-15 05:36:00,59.9,54.3,29.88,South,180,0.8,1.3,82,0.00,,,0.00,,2013-05-15 03:36:00,
2013-05-15 05:41:00,59.9,54.3,29.88,SE,135,1.7,2.6,82,0.00,,,0.00,,2013-05-15 03:41:00,
2013-05-15 05:46:00,59.7,54.1,29.88,SE,135,2.2,2.2,82,0.00,,,0.00,,2013-05-15 03:46:00,
2013-05-15 05:51:00,59.7,54.1,29.88,SE,135,1.3,1.3,82,0.00,,,0.00,,2013-05-15 03:51:00,
2013-05-15 05:56:00,59.7,54.1,29.88,SE,135,1.3,2.2,82,0.00,,,0.00,,2013-05-15 03:56:00,
2013-05-15 06:01:00,59.7,54.1,29.88,SE,135,1.3,2.2,82,0.00,,,0.00,,2013-05-15 04:01:00,
2013-05-15 06:06:00,59.9,54.3,29.88,SE,135,1.3,1.3,82,0.00,,,0.00,,2013-05-15 04:06:00,
2013-05-15 06:11:00,59.9,54.3,29.88,SE,135,1.3,0.0,82,0.00,,,0.00,,2013-05-15 04:11:00,
2013-05-15 06:16:00,59.9,54.3,29.88,SE,135,1.3,3.5,82,0.00,,,0.00,,2013-05-15 04:16:00,
2013-05-15 06:21:00,59.9,54.3,29.88,SE,135,1.7,1.7,82,0.00,,,0.00,,2013-05-15 04:21:00,
2013-05-15 06:26:00,59.9,54.3,29.88,East,90,1.7,3.5,82,0.00,,,0.00,,2013-05-15 04:26:00,
2013-05-15 06:31:00,60.1,54.5,29.88,SE,135,2.2,3.1,82,0.00,,,0.00,,2013-05-15 04:31:00,
2013-05-15 06:36:00,60.1,54.5,29.88,SE,135,1.7,3.1,82,0.00,,,0.00,,2013-05-15 04:36:00,
2013-05-15 06:41:00,60.1,54.5,29.88,SE,135,2.6,4.0,82,0.00,,,0.00,,2013-05-15 04:41:00,
2013-05-15 06:46:00,60.3,54.7,29.91,East,90,1.7,3.5,82,0.00,,,0.00,,2013-05-15 04:46:00,
2013-05-15 06:51:00,60.4,54.9,29.91,East,90,2.6,3.5,82,0.00,,,0.00,,2013-05-15 04:51:00,
2013-05-15 06:56:00,60.8,55.2,29.91,SE,135,3.5,6.2,82,0.00,,,0.00,,2013-05-15 04:56:00,
2013-05-15 07:01:00,60.8,55.2,29.91,East,90,3.1,6.2,82,0.00,,,0.00,,2013-05-15 05:01:00,
2013-05-15 07:06:00,60.8,55.2,29.88,East,90,2.6,4.0,82,0.00,,,0.00,,2013-05-15 05:06:00,
2013-05-15 07:11:00,61.0,55.4,29.88,SE,135,2.2,2.6,82,0.00,,,0.00,,2013-05-15 05:11:00,
2013-05-15 07:16:00,61.0,55.4,29.88,East,90,2.6,4.0,82,0.00,,,0.00,,2013-05-15 05:16:00,
2013-05-15 07:21:00,61.0,55.4,29.88,SE,135,3.5,5.8,82,0.00,,,0.00,,2013-05-15 05:21:00,
2013-05-15 07:26:00,61.2,55.6,29.88,East,90,0.8,3.1,82,0.00,,,0.00,,2013-05-15 05:26:00,
2013-05-15 07:31:00,61.3,55.8,29.88,NE,45,3.5,4.9,82,0.00,,,0.00,,2013-05-15 05:31:00,
2013-05-15 07:36:00,61.5,55.9,29.88,ENE,67,2.6,3.5,82,0.00,,,0.00,,2013-05-15 05:36:00,
2013-05-15 07:41:00,61.7,55.8,29.88,East,90,2.6,4.0,81,0.00,,,0.00,,2013-05-15 05:41:00,
2013-05-15 07:46:00,61.9,55.9,29.88,NE,45,4.0,4.0,81,0.00,,,0.00,,2013-05-15 05:46:00,
2013-05-15 07:51:00,62.2,56.3,29.88,NE,45,2.6,2.6,81,0.00,,,0.00,,2013-05-15 05:51:00,
2013-05-15 07:56:00,62.4,56.1,29.91,NE,45,0.8,1.7,80,0.00,,,0.00,,2013-05-15 05:56:00,
2013-05-15 08:01:00,62.6,56.3,29.91,East,90,4.4,4.4,80,0.00,,,0.00,,2013-05-15 06:01:00,
2013-05-15 08:06:00,63.0,56.7,29.88,East,90,2.2,2.2,80,0.00,,,0.00,,2013-05-15 06:06:00,
2013-05-15 08:11:00,63.1,56.8,29.88,SE,135,5.3,5.3,80,0.00,,,0.00,,2013-05-15 06:11:00,
2013-05-15 08:17:00,63.1,56.8,29.88,ESE,112,4.4,5.3,80,0.00,,,0.00,,2013-05-15 06:17:00,
2013-05-15 08:26:00,63.7,57.4,29.88,East,90,2.6,5.8,80,0.00,,,0.00,,2013-05-15 06:26:00,
2013-05-15 08:31:00,63.9,57.6,29.88,East,90,3.1,3.5,80,0.00,,,0.00,,2013-05-15 06:31:00,
2013-05-15 08:36:00,63.9,57.2,29.88,East,90,4.4,5.8,79,0.00,,,0.00,,2013-05-15 06:36:00,
2013-05-15 08:41:00,64.2,57.6,29.88,East,90,4.9,5.3,79,0.00,,,0.00,,2013-05-15 06:41:00,
2013-05-15 08:46:00,64.4,57.7,29.88,SE,135,4.4,11.1,79,0.00,,,0.00,,2013-05-15 06:46:00,
2013-05-15 08:51:00,64.4,57.7,29.88,East,90,3.5,5.8,79,0.00,,,0.00,,2013-05-15 06:51:00,
2013-05-15 08:56:00,64.6,57.6,29.91,SE,135,4.9,8.5,78,0.00,,,0.00,,2013-05-15 06:56:00,
2013-05-15 09:01:00,64.8,57.6,29.91,SE,135,8.0,9.8,78,0.00,,,0.00,,2013-05-15 07:01:00,
2013-05-15 09:06:00,64.8,57.2,29.88,SE,135,4.0,9.8,77,0.00,,,0.00,,2013-05-15 07:06:00,
2013-05-15 09:11:00,65.1,57.6,29.88,SE,135,3.1,5.8,77,0.00,,,0.00,,2013-05-15 07:11:00,
2013-05-15 09:16:00,65.3,57.7,29.91,East,90,5.3,6.2,77,0.00,,,0.00,,2013-05-15 07:16:00,
2013-05-15 09:21:00,65.5,57.6,29.91,ESE,112,5.3,5.8,76,0.00,,,0.00,,2013-05-15 07:21:00,
2013-05-15 09:26:00,65.7,57.7,29.91,SE,135,6.7,0.0,76,0.00,,,0.00,,2013-05-15 07:26:00,
2013-05-15 09:31:00,65.8,57.9,29.91,SE,135,4.4,5.8,76,0.00,,,0.00,,2013-05-15 07:31:00,
2013-05-15 09:36:00,66.0,58.1,29.91,East,90,5.8,8.9,76,0.00,,,0.00,,2013-05-15 07:36:00,
2013-05-15 09:41:00,66.4,58.5,29.91,East,90,6.2,8.9,76,0.00,,,0.00,,2013-05-15 07:41:00,
2013-05-15 09:46:00,66.6,58.3,29.88,SE,135,8.5,12.0,75,0.00,,,0.00,,2013-05-15 07:46:00,
2013-05-15 09:51:00,66.7,58.1,29.88,SE,135,6.7,10.2,74,0.00,,,0.00,,2013-05-15 07:51:00,
2013-05-15 09:56:00,67.1,58.1,29.88,SE,135,8.0,8.5,73,0.00,,,0.00,,2013-05-15 07:56:00,
2013-05-15 10:01:00,67.5,58.5,29.88,SE,135,5.8,5.8,73,0.00,,,0.00,,2013-05-15 08:01:00,
2013-05-15 10:06:00,67.6,58.3,29.88,SE,135,4.4,6.2,72,0.00,,,0.00,,2013-05-15 08:06:00,
2013-05-15 10:11:00,67.6,57.7,29.88,SE,135,5.8,5.8,71,0.00,,,0.00,,2013-05-15 08:11:00,
2013-05-15 10:16:00,68.0,57.7,29.91,South,180,6.7,9.8,70,0.00,,,0.00,,2013-05-15 08:16:00,
2013-05-15 10:21:00,68.4,58.1,29.91,SE,135,4.9,8.0,70,0.00,,,0.00,,2013-05-15 08:21:00,
2013-05-15 10:26:00,68.4,57.7,29.88,SSE,157,6.2,8.9,69,0.00,,,0.00,,2013-05-15 08:26:00,
2013-05-15 10:31:00,68.7,57.2,29.88,SE,135,4.9,8.9,67,0.00,,,0.00,,2013-05-15 08:31:00,
2013-05-15 10:36:00,69.1,57.6,29.88,SE,135,5.3,8.9,67,0.00,,,0.00,,2013-05-15 08:36:00,
2013-05-15 10:41:00,69.8,57.4,29.88,ESE,112,4.4,12.5,65,0.00,,,0.00,,2013-05-15 08:41:00,
2013-05-15 10:46:00,69.8,57.0,29.88,SE,135,6.7,11.1,64,0.00,,,0.00,,2013-05-15 08:46:00,
2013-05-15 10:51:00,69.8,56.5,29.88,SE,135,7.1,10.7,63,0.00,,,0.00,,2013-05-15 08:51:00,
2013-05-15 10:56:00,70.2,56.8,29.88,SE,135,5.3,9.8,63,0.00,,,0.00,,2013-05-15 08:56:00,
2013-05-15 11:01:00,70.3,56.7,29.88,SE,135,8.0,8.0,62,0.00,,,0.00,,2013-05-15 09:01:00,
2013-05-15 11:06:00,70.7,57.0,29.88,SE,135,5.3,5.3,62,0.00,,,0.00,,2013-05-15 09:06:00,
2013-05-15 11:11:00,70.9,56.1,29.88,East,90,6.2,8.0,60,0.00,,,0.00,,2013-05-15 09:11:00,
2013-05-15 11:16:00,70.9,56.1,29.88,East,90,6.2,10.7,60,0.00,,,0.00,,2013-05-15 09:16:00,
2013-05-15 11:21:00,70.7,56.5,29.88,SE,135,4.0,8.9,61,0.00,,,0.00,,2013-05-15 09:21:00,
2013-05-15 11:26:00,71.1,56.8,29.88,East,90,5.3,8.0,61,0.00,,,0.00,,2013-05-15 09:26:00,
2013-05-15 11:31:00,70.9,56.1,29.88,NE,45,5.8,7.6,60,0.00,,,0.00,,2013-05-15 09:31:00,
2013-05-15 11:36:00,70.9,56.1,29.88,East,90,6.7,6.7,60,0.00,,,0.00,,2013-05-15 09:36:00,
2013-05-15 11:41:00,70.7,56.1,29.88,SE,135,4.9,0.0,60,0.00,,,0.00,,2013-05-15 09:41:00,
2013-05-15 11:46:00,70.9,55.8,29.85,SE,135,4.0,0.0,59,0.00,,,0.00,,2013-05-15 09:46:00,
2013-05-15 11:51:00,70.9,55.8,29.85,SE,135,6.2,8.0,59,0.00,,,0.00,,2013-05-15 09:51:00,
2013-05-15 11:56:00,70.7,55.6,29.85,SE,135,6.7,6.7,59,0.00,,,0.00,,2013-05-15 09:56:00,
2013-05-15 12:01:00,70.9,55.8,29.85,SE,135,4.4,6.2,59,0.00,,,0.00,,2013-05-15 10:01:00,
2013-05-15 12:06:00,70.9,55.2,29.88,ESE,112,7.1,8.9,58,0.00,,,0.00,,2013-05-15 10:06:00,
2013-05-15 12:11:00,71.1,55.9,29.88,South,180,4.4,8.9,59,0.00,,,0.00,,2013-05-15 10:11:00,
2013-05-15 12:16:00,71.2,55.6,29.91,SE,135,5.3,5.3,58,0.00,,,0.00,,2013-05-15 10:16:00,
2013-05-15 12:21:00,71.2,54.7,29.91,SE,135,5.3,9.3,56,0.00,,,0.00,,2013-05-15 10:21:00,
2013-05-15 12:26:00,71.6,55.9,29.91,SE,135,2.2,6.2,58,0.00,,,0.00,,2013-05-15 10:26:00,
2013-05-15 12:31:00,71.2,55.6,29.91,SE,135,7.6,7.6,58,0.00,,,0.00,,2013-05-15 10:31:00,
2013-05-15 12:36:00,71.2,56.1,29.91,SSE,157,8.0,8.0,59,0.00,,,0.00,,2013-05-15 10:36:00,
2013-05-15 12:41:00,71.2,55.6,29.91,SE,135,4.4,5.3,58,0.00,,,0.00,,2013-05-15 10:41:00,
2013-05-15 12:46:00,71.1,55.0,29.88,SE,135,6.7,8.9,57,0.00,,,0.00,,2013-05-15 10:46:00,
2013-05-15 12:51:00,70.9,54.9,29.88,SE,135,6.2,10.2,57,0.00,,,0.00,,2013-05-15 10:51:00,
2013-05-15 12:56:00,70.9,55.2,29.88,South,180,4.9,5.3,58,0.00,,,0.00,,2013-05-15 10:56:00,
2013-05-15 13:01:00,70.7,54.7,29.88,South,180,5.8,5.8,57,0.00,,,0.00,,2013-05-15 11:01:00,
2013-05-15 13:06:00,70.7,55.0,29.91,South,180,4.0,4.0,58,0.00,,,0.00,,2013-05-15 11:06:00,
2013-05-15 13:11:00,70.9,55.2,29.91,SE,135,4.9,6.2,58,0.00,,,0.00,,2013-05-15 11:11:00,
2013-05-15 13:16:00,70.9,55.2,29.88,South,180,3.1,3.1,58,0.00,,,0.00,,2013-05-15 11:16:00,
2013-05-15 13:21:00,71.1,55.4,29.88,South,180,3.5,8.5,58,0.00,,,0.00,,2013-05-15 11:21:00,
2013-05-15 13:27:00,71.1,55.9,29.88,SE,135,4.9,6.2,59,0.00,,,0.00,,2013-05-15 11:27:00,
2013-05-15 13:36:00,71.1,56.8,29.88,South,180,3.1,3.1,61,0.00,,,0.00,,2013-05-15 11:36:00,
2013-05-15 13:41:00,70.9,56.7,29.88,South,180,2.6,3.1,61,0.00,,,0.00,,2013-05-15 11:41:00,
2013-05-15 13:46:00,70.5,55.9,29.88,SE,135,4.0,5.8,60,0.00,,,0.00,,2013-05-15 11:46:00,
2013-05-15 13:51:00,70.5,55.4,29.88,South,180,6.7,6.7,59,0.00,,,0.00,,2013-05-15 11:51:00,
2013-05-15 13:56:00,70.5,53.4,29.88,ESE,112,5.8,8.5,55,0.00,,,0.00,,2013-05-15 11:56:00,
2013-05-15 14:02:00,70.5,52.5,29.88,SE,135,5.8,13.4,53,0.00,,,0.00,,2013-05-15 12:02:00,
2013-05-15 14:11:00,70.2,52.2,29.88,SE,135,4.9,9.3,53,0.00,,,0.00,,2013-05-15 12:11:00,
2013-05-15 14:16:00,70.0,52.5,29.88,SE,135,4.0,8.0,54,0.00,,,0.00,,2013-05-15 12:16:00,
2013-05-15 14:22:00,69.8,52.9,29.88,SE,135,5.8,9.3,55,0.00,,,0.00,,2013-05-15 12:22:00,
2013-05-15 14:31:00,69.6,53.6,29.88,SE,135,5.8,8.5,57,0.00,,,0.00,,2013-05-15 12:31:00,
2013-05-15 14:37:00,69.4,52.9,29.88,East,90,8.9,12.9,56,0.00,,,0.00,,2013-05-15 12:37:00,
2013-05-15 14:46:00,69.4,53.4,29.85,SE,135,6.7,9.8,57,0.00,,,0.00,,2013-05-15 12:46:00,
2013-05-15 14:51:00,69.3,53.8,29.85,SE,135,8.5,15.2,58,0.00,,,0.00,,2013-05-15 12:51:00,
2013-05-15 14:56:00,69.3,54.7,29.85,SE,135,6.7,8.9,60,0.00,,,0.00,,2013-05-15 12:56:00,
2013-05-15 15:01:00,69.3,55.2,29.85,SE,135,5.8,0.0,61,0.00,,,0.00,,2013-05-15 13:01:00,
2013-05-15 15:07:00,69.3,56.1,29.88,SE,135,7.1,9.3,63,0.00,,,0.00,,2013-05-15 13:07:00,
2013-05-15 15:16:00,69.3,57.4,29.85,East,90,5.3,6.2,66,0.00,,,0.00,,2013-05-15 13:16:00,
2013-05-15 15:21:00,69.3,57.7,29.85,SE,135,8.0,10.7,67,0.00,,,0.00,,2013-05-15 13:21:00,
2013-05-15 15:26:00,69.3,57.7,29.85,SE,135,8.9,15.2,67,0.00,,,0.00,,2013-05-15 13:26:00,
2013-05-15 15:31:00,69.4,57.9,29.85,SE,135,9.8,14.7,67,0.00,,,0.00,,2013-05-15 13:31:00,
2013-05-15 15:36:00,69.8,58.3,29.85,SE,135,8.9,19.2,67,0.00,,,0.00,,2013-05-15 13:36:00,
2013-05-15 15:42:00,70.0,58.8,29.85,SE,135,9.8,9.8,68,0.00,,,0.00,,2013-05-15 13:42:00,
2013-05-15 15:47:00,70.2,59.0,29.85,South,180,6.7,12.5,68,0.00,,,0.00,,2013-05-15 13:47:00,
2013-05-15 15:52:00,70.2,59.0,29.85,SE,135,5.3,5.3,68,0.00,,,0.00,,2013-05-15 13:52:00,
2013-05-15 15:57:00,69.6,58.5,29.85,NE,45,8.0,8.0,68,0.00,,,0.00,,2013-05-15 13:57:00,
2013-05-15 16:06:00,69.3,59.0,29.88,SE,135,7.6,11.6,70,0.00,,,0.00,,2013-05-15 14:06:00,
2013-05-15 16:11:00,68.9,59.0,29.88,SE,135,8.5,12.0,71,0.00,,,0.00,,2013-05-15 14:11:00,
2013-05-15 16:16:00,68.5,58.3,29.85,SE,135,10.2,12.9,70,0.00,,,0.00,,2013-05-15 14:16:00,
2013-05-15 16:22:00,68.2,57.9,29.85,SE,135,9.8,17.0,70,0.00,,,0.00,,2013-05-15 14:22:00,
2013-05-15 16:31:00,68.0,59.0,29.85,SE,135,6.7,6.7,73,0.00,,,0.00,,2013-05-15 14:31:00,
2013-05-15 16:36:00,67.8,58.8,29.85,SE,135,5.3,5.3,73,0.00,,,0.00,,2013-05-15 14:36:00,
2013-05-15 16:41:00,67.6,58.6,29.85,SE,135,6.7,13.4,73,0.00,,,0.00,,2013-05-15 14:41:00,
2013-05-15 16:46:00,67.8,59.2,29.85,SE,135,4.9,13.4,74,0.00,,,0.00,,2013-05-15 14:46:00,
2013-05-15 16:52:00,67.6,59.0,29.85,East,90,5.8,9.8,74,0.00,,,0.00,,2013-05-15 14:52:00,
2013-05-15 16:57:00,67.5,58.8,29.85,SE,135,8.9,8.9,74,0.00,,,0.00,,2013-05-15 14:57:00,
2013-05-15 17:06:00,67.5,58.8,29.82,SE,135,8.0,8.0,74,0.00,,,0.00,,2013-05-15 15:06:00,
2013-05-15 17:12:00,67.5,58.8,29.82,SE,135,4.4,8.9,74,0.00,,,0.00,,2013-05-15 15:12:00,
2013-05-15 17:21:00,67.3,58.3,29.85,SE,135,5.8,8.0,73,0.00,,,0.00,,2013-05-15 15:21:00,
2013-05-15 17:27:00,67.1,58.1,29.82,South,180,9.3,12.9,73,0.00,,,0.00,,2013-05-15 15:27:00,
2013-05-15 17:37:00,66.9,57.9,29.85,SE,135,6.2,8.0,73,0.00,,,0.00,,2013-05-15 15:37:00,
2013-05-15 17:46:00,66.7,58.5,29.85,East,90,5.3,5.8,75,0.00,,,0.00,,2013-05-15 15:46:00,
2013-05-15 17:52:00,66.6,58.3,29.85,East,90,7.6,7.6,75,0.00,,,0.00,,2013-05-15 15:52:00,
2013-05-15 17:57:00,66.4,57.7,29.82,SW,225,8.0,8.5,74,0.00,,,0.00,,2013-05-15 15:57:00,
2013-05-15 18:01:00,66.2,57.9,29.82,South,180,6.2,8.0,75,0.00,,,0.00,,2013-05-15 16:01:00,
2013-05-15 18:06:00,66.2,58.3,29.85,SSW,202,5.3,0.0,76,0.00,,,0.00,,2013-05-15 16:06:00,
2013-05-15 18:12:00,65.7,57.7,29.85,SE,135,5.3,8.0,76,0.00,,,0.00,,2013-05-15 16:12:00,
2013-05-15 18:17:00,65.7,58.1,29.85,SE,135,6.7,8.9,77,0.00,,,0.00,,2013-05-15 16:17:00,
2013-05-15 18:22:00,65.8,58.3,29.85,SE,135,6.7,6.7,77,0.00,,,0.00,,2013-05-15 16:22:00,
2013-05-15 18:31:00,66.0,58.1,29.82,SE,135,4.0,9.8,76,0.00,,,0.00,,2013-05-15 16:31:00,
2013-05-15 18:36:00,65.8,57.6,29.82,SE,135,8.9,9.8,75,0.00,,,0.00,,2013-05-15 16:36:00,
2013-05-15 18:41:00,65.8,57.6,29.82,East,90,10.2,10.2,75,0.00,,,0.00,,2013-05-15 16:41:00,
2013-05-15 18:47:00,66.0,58.1,29.82,SE,135,5.8,9.8,76,0.00,,,0.00,,2013-05-15 16:47:00,
2013-05-15 18:51:00,66.0,58.5,29.82,SE,135,6.2,6.2,77,0.00,,,0.00,,2013-05-15 16:51:00,
2013-05-15 18:56:00,66.0,58.5,29.82,SE,135,6.2,6.2,77,0.00,,,0.00,,2013-05-15 16:56:00,
2013-05-15 19:01:00,66.0,58.5,29.82,SE,135,4.0,5.8,77,0.00,,,0.00,,2013-05-15 17:01:00,
2013-05-15 19:07:00,66.0,58.5,29.82,SE,135,4.4,7.6,77,0.00,,,0.00,,2013-05-15 17:07:00,
2013-05-15 19:16:00,66.0,57.7,29.82,NE,45,4.9,5.8,75,0.00,,,0.00,,2013-05-15 17:16:00,
2013-05-15 19:22:00,66.2,57.9,29.82,East,90,5.3,5.8,75,0.00,,,0.00,,2013-05-15 17:22:00,
2013-05-15 19:31:00,66.4,58.5,29.82,SE,135,3.1,3.1,76,0.00,,,0.00,,2013-05-15 17:31:00,
2013-05-15 19:36:00,66.4,58.5,29.82,SE,135,5.3,5.3,76,0.00,,,0.00,,2013-05-15 17:36:00,
2013-05-15 19:41:00,66.2,58.3,29.82,SE,135,6.7,11.1,76,0.00,,,0.00,,2013-05-15 17:41:00,
2013-05-15 19:47:00,66.2,58.6,29.82,SE,135,5.3,6.2,77,0.00,,,0.00,,2013-05-15 17:47:00,
2013-05-15 19:57:00,66.2,59.0,29.82,NE,45,7.1,7.1,78,0.00,,,0.00,,2013-05-15 17:57:00,
2013-05-15 20:07:00,66.0,58.8,29.82,East,90,5.3,5.3,78,0.00,,,0.00,,2013-05-15 18:07:00,
2013-05-15 20:17:00,66.0,59.2,29.82,SE,135,5.3,5.3,79,0.00,,,0.00,,2013-05-15 18:17:00,
2013-05-15 20:22:00,66.2,59.4,29.82,SE,135,3.5,5.3,79,0.00,,,0.00,,2013-05-15 18:22:00,
2013-05-15 20:27:00,66.2,59.0,29.82,East,90,6.7,12.9,78,0.00,,,0.00,,2013-05-15 18:27:00,
2013-05-15 20:32:00,66.2,59.0,29.82,SE,135,4.0,6.2,78,0.00,,,0.00,,2013-05-15 18:32:00,
2013-05-15 20:37:00,66.2,59.0,29.79,SE,135,2.6,5.3,78,0.00,,,0.00,,2013-05-15 18:37:00,
2013-05-15 20:42:00,66.2,58.6,29.79,ESE,112,6.2,8.9,77,0.00,,,0.00,,2013-05-15 18:42:00,
2013-05-15 20:47:00,66.2,58.3,29.82,East,90,6.7,7.6,76,0.00,,,0.00,,2013-05-15 18:47:00,
2013-05-15 20:52:00,66.4,58.1,29.82,SE,135,6.2,6.2,75,0.00,,,0.00,,2013-05-15 18:52:00,
2013-05-15 20:57:00,66.6,57.9,29.82,East,90,5.8,7.6,74,0.00,,,0.00,,2013-05-15 18:57:00,
2013-05-15 21:02:00,66.6,57.9,29.82,East,90,4.9,10.7,74,0.00,,,0.00,,2013-05-15 19:02:00,
2013-05-15 21:07:00,66.6,57.6,29.82,SE,135,6.2,9.8,73,0.00,,,0.00,,2013-05-15 19:07:00,
2013-05-15 21:12:00,66.7,57.4,29.82,SE,135,3.5,9.8,72,0.00,,,0.00,,2013-05-15 19:12:00,
2013-05-15 21:17:00,66.7,57.4,29.79,NE,45,4.4,4.9,72,0.00,,,0.00,,2013-05-15 19:17:00,
2013-05-15 21:22:00,66.7,56.5,29.79,East,90,7.6,0.0,70,0.00,,,0.00,,2013-05-15 19:22:00,
2013-05-15 21:32:00,66.9,56.3,29.79,SE,135,4.9,8.5,69,0.00,,,0.00,,2013-05-15 19:32:00,
2013-05-15 21:42:00,67.1,56.1,29.79,SE,135,3.1,4.4,68,0.00,,,0.00,,2013-05-15 19:42:00,
2013-05-15 21:47:00,67.1,56.1,29.79,ESE,112,2.2,2.6,68,0.00,,,0.00,,2013-05-15 19:47:00,
2013-05-15 21:52:00,66.9,55.9,29.79,SE,135,3.5,7.6,68,0.00,,,0.00,,2013-05-15 19:52:00,
2013-05-15 21:57:00,66.9,55.9,29.79,East,90,3.1,6.2,68,0.00,,,0.00,,2013-05-15 19:57:00,
2013-05-15 22:02:00,66.9,55.9,29.79,SE,135,1.7,1.7,68,0.00,,,0.00,,2013-05-15 20:02:00,
2013-05-15 22:07:00,66.9,55.9,29.79,East,90,2.6,2.6,68,0.00,,,0.00,,2013-05-15 20:07:00,
2013-05-15 22:12:00,67.1,55.8,29.79,SE,135,2.6,2.6,67,0.00,,,0.00,,2013-05-15 20:12:00,
2013-05-15 22:17:00,66.9,55.9,29.79,SE,135,2.6,6.2,68,0.00,,,0.00,,2013-05-15 20:17:00,
2013-05-15 22:27:00,66.7,56.1,29.79,ESE,112,3.5,4.9,69,0.00,,,0.00,,2013-05-15 20:27:00,
2013-05-15 22:32:00,66.4,55.8,29.79,SE,135,4.0,6.2,69,0.00,,,0.00,,2013-05-15 20:32:00,
2013-05-15 22:37:00,66.2,56.1,29.82,SE,135,3.1,4.9,70,0.00,,,0.00,,2013-05-15 20:37:00,
2013-05-15 22:42:00,66.0,56.3,29.82,SE,135,1.7,4.4,71,0.00,,,0.00,,2013-05-15 20:42:00,
2013-05-15 22:52:00,65.5,56.5,29.79,East,90,3.5,4.4,73,0.00,,,0.00,,2013-05-15 20:52:00,
2013-05-15 23:02:00,65.3,56.7,29.79,SE,135,1.7,3.5,74,0.00,,,0.00,,2013-05-15 21:02:00,
2013-05-15 23:07:00,65.1,56.5,29.79,SE,135,0.8,3.5,74,0.00,,,0.00,,2013-05-15 21:07:00,
2013-05-15 23:12:00,65.1,56.8,29.79,SE,135,0.0,0.4,75,0.00,,,0.00,,2013-05-15 21:12:00,
2013-05-15 23:17:00,65.1,56.8,29.76,SE,135,0.0,0.0,75,0.00,,,0.00,,2013-05-15 21:17:00,
2013-05-15 23:22:00,65.3,57.0,29.76,SE,135,0.0,0.0,75,0.00,,,0.00,,2013-05-15 21:22:00,
2013-05-15 23:27:00,65.1,56.8,29.79,SE,135,0.0,0.0,75,0.00,,,0.00,,2013-05-15 21:27:00,
2013-05-15 23:37:00,65.1,57.2,29.79,SE,135,0.0,0.0,76,0.00,,,0.00,,2013-05-15 21:37:00,
2013-05-15 23:47:00,65.1,56.8,29.79,East,90,2.2,2.2,75,0.00,,,0.00,,2013-05-15 21:47:00,
2013-05-15 23:52:00,65.1,56.8,29.79,East,90,2.6,2.6,75,0.00,,,0.00,,2013-05-15 21:52:00,
2013-05-15 23:57:00,65.1,56.8,29.76,East,90,1.7,3.1,75,0.00,,,0.00,,2013-05-15 21:57:00,